H1 CPF 2 NER 2023 1 14 9 014 01 glonass141 H2 1908801 9141 44850 2023 1 14 0 0 0 2023 1 17 23 45 0 900 1 1 0 0 0 1 H9 10 0 59958 0.00000 0 11550463.470 10022028.437 20448000.103 10 0 59958 900.00000 0 8952722.311 9926965.185 21755190.372 10 0 59958 1800.00000 0 6220620.491 10032455.297 22641165.382 10 0 59958 2700.00000 0 3422493.517 10350076.182 23088768.637 10 0 59958 3600.00000 0 628381.558 10879096.613 23089299.883 10 0 59958 4500.00000 0 -2092636.250 11606436.801 22642683.964 10 0 59958 5400.00000 0 -4675064.044 12507161.165 21757477.199 10 0 59958 6300.00000 0 -7059461.193 13545484.181 20450710.801 10 0 59958 7200.00000 0 -9194662.934 14676248.518 18747573.543 10 0 59958 8100.00000 0 -11039658.797 15846815.123 16680938.659 10 0 59958 9000.00000 0 -12565051.594 16999287.602 14290742.634 10 0 59958 9900.00000 0 -13754036.616 18072979.000 11623226.440 10 0 59958 10800.00000 0 -14602860.298 19007018.444 8730052.388 10 0 59958 11700.00000 0 -15120739.004 19742988.662 5667312.397 10 0 59958 12600.00000 0 -15329240.926 20227483.374 2494446.040 10 0 59958 13500.00000 0 -15261156.765 20414476.228 -726911.215 10 0 59958 14400.00000 0 -14958906.419 20267400.265 -3934127.293 10 0 59958 15300.00000 0 -14472548.814 19760848.608 -7064796.604 10 0 59958 16200.00000 0 -13857479.170 18881822.744 -10057962.435 10 0 59958 17100.00000 0 -13171911.539 17630473.657 -12855313.901 10 0 59958 18000.00000 0 -12474253.950 16020302.643 -15402332.912 10 0 59958 18900.00000 0 -11820488.257 14077811.455 -17649367.682 10 0 59958 19800.00000 0 -11261666.730 11841614.988 -19552610.824 10 0 59958 20700.00000 0 -10841632.481 9361052.633 -21074961.959 10 0 59958 21600.00000 0 -10595061.218 6694355.762 -22186757.433 10 0 59958 22500.00000 0 -10545907.991 3906447.640 -22866352.478 10 0 59958 23400.00000 0 -10706325.230 1066467.711 -23100544.277 10 0 59958 24300.00000 0 -11076098.075 -1754876.327 -22884827.760 10 0 59958 25200.00000 0 -11642620.940 -4488018.065 -22223479.366 10 0 59958 26100.00000 0 -12381416.034 -7067190.470 -21129467.503 10 0 59958 27000.00000 0 -13257171.558 -9432921.848 -19624191.902 10 0 59958 27900.00000 0 -14225255.128 -11534266.127 -17737057.464 10 0 59958 28800.00000 0 -15233637.862 -13330675.082 -15504891.482 10 0 59958 29700.00000 0 -16225147.172 -14793435.614 -12971216.216 10 0 59958 30600.00000 0 -17139952.474 -15906613.559 -10185391.598 10 0 59958 31500.00000 0 -17918178.280 -16667466.370 -7201645.525 10 0 59958 32400.00000 0 -18502533.875 -17086309.577 -4078011.270 10 0 59958 33300.00000 0 -18840848.362 -17185844.890 -875193.339 10 0 59958 34200.00000 0 -18888403.993 -16999980.356 2344615.467 10 0 59958 35100.00000 0 -18609969.575 -16572194.369 5518942.405 10 0 59958 36000.00000 0 -17981448.611 -15953514.123 8586244.837 10 0 59958 36900.00000 0 -16991073.180 -15200194.938 11487098.399 10 0 59958 37800.00000 0 -15640093.832 -14371199.042 14165340.579 10 0 59958 38700.00000 0 -13942936.777 -13525580.207 16569148.180 10 0 59958 39600.00000 0 -11926822.061 -12719884.169 18652028.664 10 0 59958 40500.00000 0 -9630858.468 -12005673.468 20373707.365 10 0 59958 41400.00000 0 -7104652.368 -11427279.807 21700894.728 10 0 59958 42300.00000 0 -4406487.628 -11019877.203 22607919.961 10 0 59958 43200.00000 0 -1601150.815 -10807955.724 23077220.065 10 0 59958 44100.00000 0 1242509.631 -10804258.994 23099675.719 10 0 59958 45000.00000 0 4054190.812 -11009229.503 22674788.080 10 0 59958 45900.00000 0 6764803.306 -11410984.950 21810693.217 10 0 59958 46800.00000 0 9309090.968 -11985827.012 20524013.536 10 0 59958 47700.00000 0 11628095.618 -12699262.114 18839548.285 10 0 59958 48600.00000 0 13671365.756 -13507492.553 16789807.954 10 0 59958 49500.00000 0 15398818.546 -14359316.792 14414400.118 10 0 59958 50400.00000 0 16782178.061 -15198360.396 11759277.110 10 0 59958 51300.00000 0 17805929.994 -15965544.958 8875858.599 10 0 59958 52200.00000 0 18467752.748 -16601691.824 5820044.734 10 0 59958 53100.00000 0 18778406.395 -17050151.131 2651138.119 10 0 59958 54000.00000 0 18761083.678 -17259344.950 -569305.069 10 0 59958 54900.00000 0 18450249.862 -17185116.284 -3778672.609 10 0 59958 55800.00000 0 17890019.973 -16792783.303 -6914518.756 10 0 59958 56700.00000 0 17132141.846 -16058810.265 -9915787.274 10 0 59958 57600.00000 0 16233670.359 -14972022.469 -12724010.248 10 0 59958 58500.00000 0 15254431.709 -13534311.865 -15284458.089 10 0 59958 59400.00000 0 14254385.674 -11760801.491 -17547217.206 10 0 59958 60300.00000 0 13290998.348 -9679459.947 -19468173.280 10 0 59958 61200.00000 0 12416737.393 -7330180.609 -21009879.978 10 0 59958 62100.00000 0 11676796.593 -4763363.111 -22142295.534 10 0 59958 63000.00000 0 11107146.579 -2038055.691 -22843372.426 10 0 59958 63900.00000 0 10732994.539 780264.180 -23099488.418 10 0 59958 64800.00000 0 10567718.131 3622178.348 -22905710.658 10 0 59958 65700.00000 0 10612318.440 6416981.858 -22265887.877 10 0 59958 66600.00000 0 10855414.643 9095391.308 -21192569.262 10 0 59958 67500.00000 0 11273779.887 11592194.846 -19706752.026 10 0 59958 68400.00000 0 11833394.876 13848733.527 -17837463.109 10 0 59958 69300.00000 0 12490973.662 15815110.944 -15621183.732 10 0 59958 70200.00000 0 13195896.122 17452039.780 -13101128.652 10 0 59958 71100.00000 0 13892464.491 18732249.327 -10326394.766 10 0 59958 72000.00000 0 14522387.620 19641396.603 -7350996.400 10 0 59958 72900.00000 0 15027387.274 20178444.782 -4232806.748 10 0 59958 73800.00000 0 15351815.697 20355495.104 -1032426.708 10 0 59958 74700.00000 0 15445173.616 20197081.465 2187996.191 10 0 59958 75600.00000 0 15264422.247 19738959.412 5365975.413 10 0 59958 76500.00000 0 14775991.835 19026442.246 8439895.839 10 0 59958 77400.00000 0 13957402.462 18112355.826 11350203.488 10 0 59958 78300.00000 0 12798429.107 17054698.986 14040551.708 10 0 59958 79200.00000 0 11301762.256 15914108.510 16458882.281 10 0 59958 80100.00000 0 9483136.570 14751235.245 18558421.352 10 0 59958 81000.00000 0 7370922.066 13624141.023 20298572.091 10 0 59958 81900.00000 0 5005194.383 12585824.710 21645688.102 10 0 59958 82800.00000 0 2436322.036 11681979.953 22573713.868 10 0 59958 83700.00000 0 -276871.818 10949077.307 23064681.061 10 0 59958 84600.00000 0 -3069298.398 10412849.859 23109052.088 10 0 59958 85500.00000 0 -5872054.021 10087244.825 22705904.787 10 0 59959 0.00000 0 -8615032.738 9973884.385 21862954.957 10 0 59959 900.00000 0 -11229596.024 10062058.177 20596415.425 10 0 59959 1800.00000 0 -13651186.916 10329248.163 18930694.842 10 0 59959 2700.00000 0 -15821786.603 10742164.366 16897939.346 10 0 59959 3600.00000 0 -17692108.833 11258249.182 14537425.570 10 0 59959 4500.00000 0 -19223442.921 11827588.084 11894814.844 10 0 59959 5400.00000 0 -20389068.539 12395147.380 9021281.595 10 0 59959 6300.00000 0 -21175182.993 12903245.583 5972531.466 10 0 59959 7200.00000 0 -21581301.611 13294154.576 2807727.291 10 0 59959 8100.00000 0 -21620113.817 13512720.657 -411656.842 10 0 59959 9000.00000 0 -21316800.211 13508894.058 -3623031.342 10 0 59959 9900.00000 0 -20707838.767 13240058.870 -6763913.026 10 0 59959 10800.00000 0 -19839350.128 12673063.186 -9773148.788 10 0 59959 11700.00000 0 -18765051.667 11785861.686 -12592116.227 10 0 59959 12600.00000 0 -17543906.947 10568699.121 -15165876.653 10 0 59959 13500.00000 0 -16237570.337 9024782.585 -17444256.868 10 0 59959 14400.00000 0 -14907735.402 7170412.128 -19382837.567 10 0 59959 15300.00000 0 -13613499.850 5034562.475 -20943828.098 10 0 59959 16200.00000 0 -12408859.076 2657931.948 -22096809.895 10 0 59959 17100.00000 0 -11340434.642 91497.338 -22819333.630 10 0 59959 18000.00000 0 -10445533.990 -2605365.365 -23097358.237 10 0 59959 18900.00000 0 -9750623.237 -5367116.207 -22925523.296 10 0 59959 19800.00000 0 -9270277.204 -8124549.274 -22307249.677 10 0 59959 20700.00000 0 -9006650.338 -10807449.065 -21254666.819 10 0 59959 21600.00000 0 -8949489.933 -13347294.453 -19788368.540 10 0 59959 22500.00000 0 -9076689.903 -15679897.456 -17937002.596 10 0 59959 23400.00000 0 -9355360.437 -17747866.868 -15736702.626 10 0 59959 24300.00000 0 -9743366.940 -19502794.445 -13230374.129 10 0 59959 25200.00000 0 -10191271.877 -20907073.112 -10466849.015 10 0 59959 26100.00000 0 -10644596.129 -21935272.239 -7499925.963 10 0 59959 27000.00000 0 -11046303.162 -22575013.937 -4387315.916 10 0 59959 27900.00000 0 -11339400.031 -22827315.368 -1189513.911 10 0 59959 28800.00000 0 -11469544.670 -22706384.580 2031380.130 10 0 59959 29700.00000 0 -11387548.849 -22238880.332 5212868.253 10 0 59959 30600.00000 0 -11051671.076 -21462668.988 8293265.344 10 0 59959 31500.00000 0 -10429602.788 -20425132.102 11212890.343 10 0 59959 32400.00000 0 -9500064.281 -19181096.982 13915215.011 10 0 59959 33300.00000 0 -8253943.597 -17790477.944 16347948.640 10 0 59959 34200.00000 0 -6694930.603 -16315727.356 18464038.500 10 0 59959 35100.00000 0 -4839619.675 -14819203.075 20222567.838 10 0 59959 36000.00000 0 -2717076.319 -13360561.805 21589535.397 10 0 59959 36900.00000 0 -367885.059 -11994286.273 22538502.579 10 0 59959 37800.00000 0 2157282.915 -10767448.321 23051097.002 10 0 59959 38700.00000 0 4799524.325 -9717799.968 23117363.678 10 0 59959 39600.00000 0 7493905.326 -8872270.977 22735957.590 10 0 59959 40500.00000 0 10171920.668 -8245934.633 21914174.145 10 0 59959 41400.00000 0 12764110.539 -7841484.300 20667816.581 10 0 59959 42300.00000 0 15202728.373 -7649242.466 19020902.140 10 0 59959 43200.00000 0 17424350.569 -7647702.037 17005211.548 10 0 59959 44100.00000 0 19372320.946 -7804577.737 14659689.070 10 0 59959 45000.00000 0 20998928.925 -8078324.249 12029703.240 10 0 59959 45900.00000 0 22267230.972 -8420058.089 9166181.080 10 0 59959 46800.00000 0 23152439.037 -8775803.006 6124631.204 10 0 59959 47700.00000 0 23642817.324 -9088964.676 2964073.852 10 0 59959 48600.00000 0 23740048.947 -9302930.270 -254102.049 10 0 59959 49500.00000 0 23459056.192 -9363682.565 -3467332.742 10 0 59959 50400.00000 0 22827281.000 -9222317.117 -6613100.846 10 0 59959 51300.00000 0 21883455.270 -8837354.582 -9630159.526 10 0 59959 52200.00000 0 20675912.358 -8176748.532 -12459734.858 10 0 59959 53100.00000 0 19260510.848 -7219501.838 -15046681.755 10 0 59959 54000.00000 0 17698258.362 -5956821.114 -17340569.810 10 0 59959 54900.00000 0 16052736.054 -4392758.368 -19296676.813 10 0 59959 55800.00000 0 14387433.039 -2544310.846 -20876869.553 10 0 59959 56700.00000 0 12763103.755 -440973.203 -22050354.079 10 0 59959 57600.00000 0 11235260.161 1876240.600 -22794280.338 10 0 59959 58500.00000 0 9851904.777 4356265.542 -23094189.158 10 0 59959 59400.00000 0 8651600.086 6939883.072 -22944292.913 10 0 59959 60300.00000 0 7661955.231 9561968.909 -22347584.606 10 0 59959 61200.00000 0 6898593.104 12153997.137 -21315773.572 10 0 59959 62100.00000 0 6364640.253 14646696.012 -19869049.507 10 0 59959 63000.00000 0 6050759.747 16972744.529 -18035679.932 10 0 59959 63900.00000 0 5935724.062 19069397.066 -15851449.509 10 0 59959 64800.00000 0 5987502.108 20880926.678 -13358952.759 10 0 59959 65700.00000 0 6164812.742 22360785.401 -10606754.585 10 0 59959 66600.00000 0 6419077.503 23473391.832 -7648435.690 10 0 59959 67500.00000 0 6696688.500 24195472.296 -4541542.178 10 0 59959 68400.00000 0 6941494.278 24516900.707 -1346460.428 10 0 59959 69300.00000 0 7097397.569 24441003.482 1874760.171 10 0 59959 70200.00000 0 7110954.414 23984318.402 5059613.265 10 0 59959 71100.00000 0 6933864.475 23175819.271 8146346.716 10 0 59959 72000.00000 0 6525247.327 22055640.411 11075155.257 10 0 59959 72900.00000 0 5853608.856 20673355.807 13789331.804 10 0 59959 73800.00000 0 4898415.118 19085885.778 16236355.716 10 0 59959 74700.00000 0 3651207.706 17355119.346 18368897.695 10 0 59959 75600.00000 0 2116213.944 15545351.789 20145723.155 10 0 59959 76500.00000 0 310426.044 13720643.782 21532477.787 10 0 59959 77400.00000 0 -1736854.573 11942211.477 22502341.415 10 0 59959 78300.00000 0 -3984989.752 10265955.107 23036538.771 10 0 59959 79200.00000 0 -6383454.827 8740227.641 23124698.232 10 0 59959 80100.00000 0 -8873707.863 7403935.108 22765052.241 10 0 59959 81000.00000 0 -11391402.278 6285046.407 21964475.718 10 0 59959 81900.00000 0 -13868852.997 5399573.717 20738361.435 10 0 59959 82800.00000 0 -16237655.667 4751065.400 19110334.014 10 0 59959 83700.00000 0 -18431351.905 4330632.307 17111806.976 10 0 59959 84600.00000 0 -20388031.187 4117506.461 14781389.950 10 0 59959 85500.00000 0 -22052761.902 4080109.148 12164156.019 10 0 59960 0.00000 0 -23379750.547 4177584.072 9310782.128 10 0 59960 900.00000 0 -24334139.405 4361731.757 6276576.247 10 0 59960 1800.00000 0 -24893365.164 4579263.955 3120413.098 10 0 59960 2700.00000 0 -25048022.988 4774283.223 -96406.699 10 0 59960 3600.00000 0 -24802196.761 4890882.528 -3311348.285 10 0 59960 4500.00000 0 -24173241.207 4875754.242 -6461863.020 10 0 59960 5400.00000 0 -23191023.855 4680696.911 -9486613.136 10 0 59960 6300.00000 0 -21896657.933 4264912.105 -12326675.801 10 0 59960 7200.00000 0 -20340779.071 3596992.281 -14926701.938 10 0 59960 8100.00000 0 -18581438.245 2656513.499 -17236006.075 10 0 59960 9000.00000 0 -16681699.869 1435163.569 -19209564.914 10 0 59960 9900.00000 0 -14707046.570 -62643.931 -20808904.106 10 0 59960 10800.00000 0 -12722700.386 -1819697.500 -22002855.304 10 0 59960 11700.00000 0 -10790973.521 -3806461.937 -22768168.256 10 0 59960 12600.00000 0 -8968760.470 -5982080.158 -23089965.743 10 0 59960 13500.00000 0 -7305276.938 -8295861.379 -22962032.555 10 0 59960 14400.00000 0 -5840140.361 -10689193.797 -22386933.042 10 0 59960 15300.00000 0 -4601872.053 -13097801.819 -21375955.275 10 0 59960 16200.00000 0 -3606882.906 -15454253.405 -19948883.373 10 0 59960 17100.00000 0 -2858983.876 -17690612.571 -18133602.893 10 0 59960 18000.00000 0 -2349440.207 -19741125.921 -15965547.603 10 0 59960 18900.00000 0 -2057565.170 -21544830.827 -13486998.985 10 0 59960 19800.00000 0 -1951826.256 -23047976.288 -10746252.780 10 0 59960 20700.00000 0 -1991415.199 -24206155.400 -7796669.534 10 0 59960 21600.00000 0 -2128213.601 -24986060.850 -4695628.332 10 0 59960 22500.00000 0 -2309069.429 -25366790.763 -1503404.729 10 0 59960 23400.00000 0 -2478286.831 -25340651.267 1718004.547 10 0 59960 24300.00000 0 -2580222.934 -24913423.610 4906086.858 10 0 59960 25200.00000 0 -2561881.262 -24104086.020 7999025.170 10 0 59960 26100.00000 0 -2375391.918 -22944003.356 10936892.154 10 0 59960 27000.00000 0 -1980273.872 -21475619.780 13662804.005 10 0 59960 27900.00000 0 -1345384.138 -19750709.978 16124012.213 10 0 59960 28800.00000 0 -450472.116 -17828262.754 18272912.914 10 0 59960 29700.00000 0 712726.016 -15772085.432 20067955.511 10 0 59960 30600.00000 0 2139898.742 -13648228.604 21474434.252 10 0 59960 31500.00000 0 3814101.375 -11522337.771 22465148.729 10 0 59960 32400.00000 0 5706232.098 -9457040.831 23020921.793 10 0 59960 33300.00000 0 7776023.150 -7509478.662 23130965.854 10 0 59960 34200.00000 0 9973507.291 -5729080.007 22793091.117 10 0 59960 35100.00000 0 12240900.391 -4155671.650 22013751.964 10 0 59960 36000.00000 0 14514823.806 -2818001.198 20807930.294 10 0 59960 36900.00000 0 16728776.115 -1732733.008 19198857.369 10 0 59960 37800.00000 0 18815753.251 -903958.472 17217578.438 10 0 59960 38700.00000 0 20710909.554 -323240.817 14902367.101 10 0 59960 39600.00000 0 22354149.848 29807.328 12297999.282 10 0 59960 40500.00000 0 23692544.993 186437.537 9454899.283 10 0 59960 41400.00000 0 24682469.956 187215.593 6428173.120 10 0 59960 42300.00000 0 25291374.320 80072.721 3276546.880 10 0 59960 43200.00000 0 25499110.056 -81959.937 61230.028 10 0 59960 44100.00000 0 25298759.546 -243237.795 -3155274.468 10 0 59960 45000.00000 0 24696927.603 -348104.638 -6310389.747 10 0 59960 45900.00000 0 23713483.834 -343498.683 -9342690.083 10 0 59960 46800.00000 0 22380764.959 -181451.272 -12193106.541 10 0 59960 47700.00000 0 20742269.740 178629.294 -14806088.610 10 0 59960 48600.00000 0 18850900.902 767987.292 -17130698.019 10 0 59960 49500.00000 0 16766827.748 1606947.815 -19121612.334 10 0 59960 50400.00000 0 14555059.512 2703812.060 -20740017.726 10 0 59960 51300.00000 0 12282831.717 4054268.057 -21954372.815 10 0 59960 52200.00000 0 10016915.653 5641343.266 -22741028.224 10 0 59960 53100.00000 0 7820964.333 7435902.201 -23084689.478 10 0 59960 54000.00000 0 5753006.360 9397669.095 -22978714.256 10 0 59960 54900.00000 0 3863192.696 11476733.245 -22425238.393 10 0 59960 55800.00000 0 2191890.357 13615474.069 -21435128.488 10 0 59960 56700.00000 0 768202.070 15750825.246 -20027762.489 10 0 59960 57600.00000 0 -391027.319 17816782.908 -18230643.038 10 0 59960 58500.00000 0 -1281677.573 19747052.536 -16078851.673 10 0 59960 59400.00000 0 -1912275.313 21477723.448 -13614355.163 10 0 59960 60300.00000 0 -2303377.240 22949858.740 -10885178.084 10 0 59960 61200.00000 0 -2486442.472 24111892.086 -7944458.534 10 0 59960 62100.00000 0 -2502243.795 24921731.232 -4849406.032 10 0 59960 63000.00000 0 -2398886.855 25348480.480 -1660182.581 10 0 59960 63900.00000 0 -2229522.709 25373710.690 1561270.634 10 0 59960 64800.00000 0 -2049851.770 24992224.597 4752437.645 10 0 59960 65700.00000 0 -1915525.558 24212286.373 7851439.452 10 0 59960 66600.00000 0 -1879556.597 23055307.184 10798229.541 10 0 59960 67500.00000 0 -1989845.944 21555000.832 13535750.152 10 0 59960 68400.00000 0 -2286932.522 19756045.642 16011027.507 10 0 59960 69300.00000 0 -2802058.745 17712309.238 18176185.577 10 0 59960 70200.00000 0 -3555633.397 15484710.339 19989359.944 10 0 59960 71100.00000 0 -4556156.075 13138806.419 21415495.355 10 0 59960 72000.00000 0 -5799648.195 10742206.875 22427012.817 10 0 59960 72900.00000 0 -7269614.746 8361918.092 23004334.615 10 0 59960 73800.00000 0 -8937539.134 6061729.232 23136258.109 10 0 59960 74700.00000 0 -10763891.581 3899745.725 22820171.724 10 0 59960 75600.00000 0 -12699610.634 1926171.211 22062109.251 10 0 59960 76500.00000 0 -14687997.869 181428.494 20876641.109 10 0 59960 77400.00000 0 -16666948.775 -1305303.566 19286604.020 10 0 59960 78300.00000 0 -18571428.773 -2517077.321 17322673.205 10 0 59960 79200.00000 0 -20336092.830 -3449647.177 15022783.967 10 0 59960 80100.00000 0 -21897940.577 -4111404.482 12431412.334 10 0 59960 81000.00000 0 -23198896.774 -4522779.141 9598727.157 10 0 59960 81900.00000 0 -24188209.390 -4715132.777 6579628.655 10 0 59960 82800.00000 0 -24824564.354 -4729189.593 3432691.073 10 0 59960 83700.00000 0 -25077827.372 -4613070.838 219029.243 10 0 59960 84600.00000 0 -24930338.323 -4420015.781 -2998889.183 10 0 59960 85500.00000 0 -24377702.189 -4205885.818 -6158462.427 10 0 59961 0.00000 0 -23429041.708 -4026557.989 -9198179.670 10 0 59961 900.00000 0 -22106698.924 -3935319.245 -12058829.357 10 0 59961 1800.00000 0 -20445398.264 -3980373.399 -14684661.934 10 0 59961 2700.00000 0 -18490903.590 -4202567.674 -17024488.688 10 0 59961 3600.00000 0 -16298226.291 -4633437.064 -19032690.018 10 0 59961 4500.00000 0 -13929458.996 -5293650.904 -20670114.108 10 0 59961 5400.00000 0 -11451325.959 -6191928.954 -21904847.517 10 0 59961 6300.00000 0 -8932553.029 -7324474.261 -22712842.136 10 0 59961 7200.00000 0 -6441167.791 -8674947.863 -23078386.048 10 0 59961 8100.00000 0 -4041843.098 -10214987.287 -22994409.093 10 0 59961 9000.00000 0 -1793395.178 -11905247.630 -22462617.373 10 0 59961 9900.00000 0 253459.207 -13696921.663 -21493454.373 10 0 59961 10800.00000 0 2057993.401 -15533675.143 -20105889.908 10 0 59961 11700.00000 0 3590931.228 -17353915.858 -18327041.467 10 0 59961 12600.00000 0 4835417.344 -19093300.803 -16191635.956 10 0 59961 13500.00000 0 5787458.750 -20687375.905 -13741322.886 10 0 59961 14400.00000 0 6455821.093 -22074237.139 -11023853.072 10 0 59961 15300.00000 0 6861386.348 -23197101.087 -8092139.536 10 0 59961 16200.00000 0 7036001.333 -24006676.975 -5003219.640 10 0 59961 17100.00000 0 7020867.828 -24463240.779 -1817139.286 10 0 59961 18000.00000 0 6864544.241 -24538324.704 1404218.350 10 0 59961 18900.00000 0 6620644.894 -24215951.756 4598336.302 10 0 59961 19800.00000 0 6345335.412 -23493364.511 7703275.854 10 0 59961 20700.00000 0 6094730.794 -22381218.390 10658873.389 10 0 59961 21600.00000 0 5922306.357 -20903232.157 13407899.113 10 0 59961 22500.00000 0 5876430.815 -19095311.152 15897155.745 10 0 59961 23400.00000 0 5998125.067 -17004180.230 18078496.654 10 0 59961 24300.00000 0 6319140.575 -14685583.663 19909744.902 10 0 59961 25200.00000 0 6860437.553 -12202126.828 21355496.758 10 0 59961 26100.00000 0 7631126.428 -9620848.605 22387795.362 10 0 59961 27000.00000 0 8627916.843 -7010624.284 22986662.822 10 0 59961 27900.00000 0 9835097.561 -4439505.262 23140481.494 10 0 59961 28800.00000 0 11225048.807 -1972104.295 22846217.761 10 0 59961 29700.00000 0 12759266.821 332867.055 22109484.228 10 0 59961 30600.00000 0 14389859.383 2424808.336 20944438.958 10 0 59961 31500.00000 0 16061451.647 4263097.136 19373522.980 10 0 59961 32400.00000 0 17713424.536 5818536.666 17427040.090 10 0 59961 33300.00000 0 19282393.985 7074324.538 15142585.655 10 0 59961 34200.00000 0 20704828.752 8026502.681 12564333.946 10 0 59961 35100.00000 0 21919698.275 8683869.725 9742196.269 10 0 59961 36000.00000 0 22871040.032 9067359.317 6730864.751 10 0 59961 36900.00000 0 23510338.524 9208910.152 3588759.314 10 0 59961 37800.00000 0 23798615.189 9149874.992 376897.533 10 0 59961 38700.00000 0 23708140.125 8939035.573 -2842290.956 10 0 59961 39600.00000 0 23223691.937 8630307.321 -6006182.163 10 0 59961 40500.00000 0 22343310.866 8280231.366 -9053183.320 10 0 59961 41400.00000 0 21078511.589 7945360.770 -11923941.588 10 0 59961 42300.00000 0 19453945.057 7679652.720 -14562511.133 10 0 59961 43200.00000 0 17506522.143 7531978.499 -16917454.722 10 0 59961 44100.00000 0 15284034.827 7543858.190 -18942857.225 10 0 59961 45000.00000 0 12843332.214 7747517.497 -20599230.214 10 0 59961 45900.00000 0 10248127.544 8164350.381 -21854289.306 10 0 59961 46800.00000 0 7566528.045 8803853.774 -22683588.556 10 0 59961 47700.00000 0 4868391.244 9663080.409 -23070999.259 10 0 59961 48600.00000 0 2222618.490 10726633.625 -23009023.807 10 0 59961 49500.00000 0 -305501.146 11967204.841 -22498938.659 10 0 59961 50400.00000 0 -2656785.608 13346631.214 -21550763.937 10 0 59961 51300.00000 0 -4780389.482 14817428.897 -20183060.685 10 0 59961 52200.00000 0 -6635676.139 16324737.075 -18422560.232 10 0 59961 53100.00000 0 -8193655.253 17808590.566 -16303633.454 10 0 59961 54000.00000 0 -9437927.147 19206424.857 -13867610.880 10 0 59961 54900.00000 0 -10365096.395 20455707.749 -11161967.540 10 0 59961 55800.00000 0 -10984639.448 21496586.408 -8239389.131 10 0 59961 56700.00000 0 -11318234.277 22274438.238 -5156738.421 10 0 59961 57600.00000 0 -11398582.600 22742218.151 -1973942.662 10 0 59961 58500.00000 0 -11267776.519 22862503.626 1247175.599 10 0 59961 59400.00000 0 -10975280.429 22609151.934 4444101.076 10 0 59961 60300.00000 0 -10575614.952 21968500.461 7554837.978 10 0 59961 61200.00000 0 -10125841.752 20940060.392 10519108.215 10 0 59961 62100.00000 0 -9682955.974 19536675.366 13279512.520 10 0 59961 63000.00000 0 -9301296.432 17784138.978 15782632.564 10 0 59961 63900.00000 0 -9030082.431 15720287.528 17980053.415 10 0 59961 64800.00000 0 -8911180.368 13393606.110 19829287.781 10 0 59961 65700.00000 0 -8977193.294 10861405.670 21294585.399 10 0 59961 66600.00000 0 -9249952.937 8187646.296 22347613.224 10 0 59961 67500.00000 0 -9739476.888 5440496.023 22967994.573 10 0 59961 68400.00000 0 -10443434.443 2689724.883 23143697.826 10 0 59961 69300.00000 0 -11347143.619 4040.631 22871267.915 10 0 59961 70200.00000 0 -12424100.127 -2551525.292 22155896.388 10 0 59961 71100.00000 0 -13637017.294 -4918075.077 21011328.554 10 0 59961 72000.00000 0 -14939334.846 -7045044.788 19459608.806 10 0 59961 72900.00000 0 -16277135.115 -8892057.576 17530668.036 10 0 59961 73800.00000 0 -17591388.183 -10430353.830 15261759.663 10 0 59961 74700.00000 0 -18820433.394 -11643739.201 12696753.739 10 0 59961 75600.00000 0 -19902594.416 -12529011.171 9885301.172 10 0 59961 76500.00000 0 -20778818.762 -13095846.225 6881882.856 10 0 59961 77400.00000 0 -21395230.954 -13366151.989 3744761.051 10 0 59961 78300.00000 0 -21705491.406 -13372911.222 534852.627 10 0 59961 79200.00000 0 -21672860.658 -13158566.032 -2685454.266 10 0 59961 80100.00000 0 -21271880.389 -12773010.342 -5853516.858 10 0 59961 81000.00000 0 -20489598.546 -12271275.591 -8907663.508 10 0 59961 81900.00000 0 -19326284.845 -11711008.064 -11788403.831 10 0 59961 82800.00000 0 -17795604.592 -11149845.388 -14439598.419 10 0 59961 83700.00000 0 -15924241.641 -10642804.353 -16809564.216 10 0 59961 84600.00000 0 -13750984.835 -10239791.921 -18852092.893 10 0 59961 85500.00000 0 -11325315.261 -9983346.040 -20527361.271 99